Location: Aula-Vintri
(58.3875°N, 22.4322°E)
Time: 09:03:46
(UTC+00:00)

Cosmos 1459 Rocket - Pass Details

Date: 13 October 2019
Orbit: 938 x 999 km, 83.0° (Epoch: 12 November)

Event Time Altitude Azimuth Distance (km) Brightness Sun altitude
Rises 17:11:35 0° 347° (NNW) 3,632 7.3 -13.9°
Reaches altitude 10° 17:14:15 10° 354° (N) 2,691 6.5 -14.2°
Maximum altitude 17:20:03 42° 65° (ENE) 1,357 4.4 -15.0°
Enters shadow 17:24:06 19° 126° (SE) 2,125 5.2 -15.5°
